Regional Weather Roundup
Issued by NWS Newport/Morehead, NC

Current Version | Previous Version | Text Only | Print | Product List | Glossary On
Versions: 1 2 3 4 5 6 7 8 9 10 11 12 13 14 15 16 17 18 19 20 21 22 23 24 25 26 27 28 29 30 31 32 33 34 35 36 37 38 39 40 41 42 43 44 45 46 47 48 49 50
000 ASUS42 KMHX 271012 RWRMHX WEATHER ROUNDUP FOR EASTERN NORTH CAROLINA NATIONAL WEATHER SERVICE NEWPORT/MOREHEAD CITY NC 500 AM EST FRI FEB 27 2015 NOTE: "FAIR" INDICATES FEW OR NO CLOUDS BELOW 12,000 FEET WITH NO SIGNIFICANT WEATHER AND/OR OBSTRUCTIONS TO VISIBILITY NCZ015>017-031-032-045>047-102-103-271100- NORTH COAST CITY SKY/WX TMP DP RH WIND PRES REMARKS EDENTON PTCLDY 29 28 95 N3 30.24R FOG ELIZABETH CITY PTCLDY 29 26 89 N5 30.24R KITTY HAWK CLOUDY 33 30 92 N6 30.21R MANTEO CLOUDY 32 28 86 N7 30.22R $$ NCZ045>047-081-094-103-104-271100- CENTRAL COAST CITY SKY/WX TMP DP RH WIND PRES REMARKS FRISCO CLOUDY 34 30 85 N8 30.19R SWANQUARTER N/A 30 N/A N/A NW6 30.18S $$ NCZ095-097-098-100-101-271100- SOUTHERN COAST CITY SKY/WX TMP DP RH WIND PRES REMARKS BEAUFORT CLOUDY 33 29 85 N7 30.22R CEDAR ISLAND N/A 34 N/A N/A N17 30.24S JACKSONVILLE MOCLDY 33 30 88 N8 30.24R FOG PINEY ISLAND N/A N/A N/A N/A MISG 30.21R WILMINGTON MOCLDY 33 31 92 N3 30.23R FOG $$ NCZ011>013-027>030-043-044-078>080-089-090>093-098-271100- COASTAL PLAIN CITY SKY/WX TMP DP RH WIND PRES REMARKS AHOSKIE N/A 25 24 96 CALM 30.24R FOG CLINTON MOCLDY 32 31 98 CALM 30.24S ELIZABETHTOWN CLOUDY 32 31 96 CALM 30.23R GOLDSBORO MOCLDY 31 31 99 CALM 30.22R GREENVILLE FOG 30 30 100 CALM 30.25R VSB 1 HAVELOCK CLOUDY 33 28 81 N8 30.24R KENANSVILLE CLOUDY 32 31 98 CALM 30.25R KINSTON N/A 31 30 98 CALM 30.25R FOG NEW BERN CLOUDY 33 29 85 N6 30.25R RICHLANDS CLOUDY 32 28 86 NW3 30.24R ROCKY MOUNT CLEAR 26 25 96 CALM 30.24R FOG WASHINGTON MOCLDY 30 28 93 CALM 30.24R WHITEVILLE CLOUDY 33 31 93 CALM 30.23R $$ AMZ130-135-150-152-154-156-158-170-250-252-270-ANZ085-086-088-633-658-670-271100- MARINE OBSERVATIONS STATION/POSITION TIME TEMP WIND PRES WAVE SWELL AIR SEA DIR/SP/G HT/PER HT/PER (UTC) (F) (DEG/KT/KT) (MB) (FT/S) (FT/S) CHESAPEAKE LIGHT 0900 31 360/ 13/ 14 1023.2 64 E VA BEACH 0950 41 60 360/ 17/ 23 1021.6 10/10 8/10 DUCK 0900 33 34 10/ 14/ 16 1021.4 2 E DUCK 0911 35 N/A 7/10 3/11 10 NE DUCK 0922 36 N/A 8/13 5/13 OREGON INLET 0900 34 37 350/ 10/ 14 1021.9 HATTERAS CG 0900 35 39 360/ 18/ 20 1021.8 CAPE LOOKOUT 1000 34 10/ 11/ 13 1022.9 BEAUFORT LAB 0900 34 40 360/ 11/ 15 1021.3 27 SE WRIGHTSVLE NOT AVBL 5 SE WRIGHTSVLE NOT AVBL 225 S CAPE HAT 0950 62 70 330/ 12/ 16 1018.7 9/ 8 8/ 8 41 SE CHARLESTON 0950 46 65 360/ 16/ 19 1021.8 4/ 8 3/ 8 $$

USA.gov is the U.S. government's official web portal to all federal, state and local government web resources and services.